Flag for France Weather past 2 weeks in Strasbourg, France

Now
61 °F

Light rain. Partly sunny.


Feels Like: 61 °F
Forecast: 55 / 70 °F
Wind: 6 mph from South

Location: Strasbourg Airport

Current Time: Apr 25, 2015 at 2:52:25 PM

Latest Report: Apr 25, 2015 at 2:00 PM


Visibility: N/A

Pressure: 29.86 "Hg

Humidity: 77%

Dew point: 54 °F

Location of StrasbourgLocation

Historic Weather in Strasbourg — Graph

°F

Strasbourg temperature yesterday

Maximum temperature yesterday: 72 °F (at 4:00 PM)
Minimum temperature yesterday: 39 °F (at 5:00 AM)
Average temperature yesterday: 56 °F

Past Weeks' High & Low Weather Summary

 TemperatureHumidityPressure
High81 °F (Apr 15, 3:00 PM)94% (Apr 17, 2:30 PM)30.45 "Hg (Apr 17, 2:30 PM)
Low36 °F (Apr 19, 6:00 AM)15% (Apr 15, 4:30 PM)29.83 "Hg (Apr 25, 5:30 AM)
Average57 °F55%30.16 "Hg
* Reported Apr 10 1:00 PM — Apr 25 1:30 PM, Strasbourg, Weather by CustomWeather, © 2015

Note: Actual official high and low records may vary slightly from our data, if they occured in-between our weather recording intervals... More about our weather records

Advertising

Strasbourg weather history for previous 24 hours

 ConditionsComfort  
Time TempWeatherWind HumidityBarometerVisibility
1:30 PM
Sat, Apr 25
61 °FLight rain. Overcast.5 mph83%29.86 "HgN/A
1:00 PM61 °FLight rain. Clear.8 mph77%29.86 "HgN/A
12:30 PM61 °FLight rain. Mostly cloudy.10 mph72%29.86 "HgN/A
12:00 PM61 °FClear.7 mph68%29.86 "HgN/A
11:30 AM61 °FClear.9 mph68%29.86 "HgN/A
11:00 AM61 °FPartly sunny.10 mph68%29.86 "HgN/A
10:30 AM59 °FBroken clouds.8 mph72%29.86 "HgN/A
10:00 AM57 °FBroken clouds.5 mph77%29.86 "HgN/A
9:30 AM54 °FPartly sunny.5 mph77%29.86 "HgN/A
9:00 AM54 °FLight rain. More clouds than sun.6 mph77%29.86 "HgN/A
8:30 AM52 °FClear.6 mph77%29.86 "HgN/A
8:00 AM52 °FLight rain. Clear.3 mph82%29.86 "HgN/A
7:30 AM52 °FLight rain. Clear.3 mph82%29.86 "HgN/A
7:00 AM50 °FLight rain. Clear.5 mph88%29.86 "HgN/A
6:30 AM50 °FLight rain. Clear.3 mph82%29.86 "HgN/A
6:00 AM50 °FPartly cloudy.3 mph76%29.86 "HgN/A
5:30 AM50 °FClear.2 mph76%29.83 "HgN/A
5:00 AM50 °FClear.6 mph76%29.86 "HgN/A
4:30 AM48 °FClear.3 mph82%29.86 "HgN/A
4:00 AM48 °FClear.1 mph76%29.86 "HgN/A
3:30 AM48 °FClear.No wind76%29.86 "HgN/A
3:00 AM46 °FClear.2 mph87%29.86 "HgN/A
2:30 AM48 °FClear.3 mph82%29.86 "HgN/A
2:00 AM48 °FClear.2 mph76%29.86 "HgN/A
1:30 AM50 °FClear.1 mph76%29.86 "HgN/A
1:00 AM48 °FClear.No wind76%29.89 "HgN/A
12:30 AM52 °FClear.1 mph72%29.89 "HgN/A
12:00 AM52 °FClear.2 mph72%29.89 "HgN/A
11:30 PM
Fri, Apr 24
52 °FClear.3 mph72%29.89 "HgN/A
11:00 PM55 °FClear.3 mph63%29.89 "HgN/A
10:30 PM57 °FClear.5 mph59%29.89 "HgN/A
10:00 PM59 °FClear.1 mph51%29.89 "HgN/A
9:30 PM61 °FClear.1 mph52%29.89 "HgN/A
9:00 PM63 °FClear.3 mph45%29.89 "HgN/A
8:30 PM63 °FClear.3 mph45%29.89 "HgN/A
8:00 PM66 °FClear.2 mph40%29.89 "HgN/A
7:30 PM70 °FClear.2 mph35%29.89 "HgN/A
7:00 PM70 °FClear.2 mph31%29.89 "HgN/A
6:30 PM72 °FPassing clouds.3 mph27%29.89 "HgN/A
6:00 PM70 °FClear.3 mph31%29.89 "HgN/A
5:30 PM72 °FClear.2 mph27%29.92 "HgN/A
5:00 PM72 °FClear.3 mph29%29.92 "HgN/A
4:30 PM72 °FClear.3 mph29%29.92 "HgN/A
4:00 PM72 °FClear.1 mph29%29.92 "HgN/A
3:30 PM70 °FClear.2 mph31%29.95 "HgN/A
3:00 PM70 °FClear.3 mph31%29.95 "HgN/A
2:30 PM70 °FClear.3 mph33%29.95 "HgN/A
2:00 PM68 °FClear.2 mph33%29.98 "HgN/A
Weather by CustomWeather, © 2015

See weather overviewHow to use our weather pages